Probability
0 0 0 0 0 0 0 0 0 6 6 0 0 0 0 0 0 0 0 0 0 0 0 0 0 0 0 0 0 0 0 0 0 0 0 3 3 3 3 10 13 19 29 48
0 0 0 0 0 0 0 0 0 6 10 3 0 0 0 0 0 0 0 0 0 0 0 0 0 0 0 0 0 0 0 0 0 0 0 0 0 0 0 0 0 0 13 6
0 0 0 0 0 0 0 0 0 10 6 13 0 0 0 0 0 0 0 0 0 0 0 0 0 0 0 0 0 0 0 0 0 0 0 0 0 0 0 0 0 0 0 3
0 0 0 0 0 0 0 0 0 6 0 0 0 0 0 0 0 0 0 0 0 0 0 0 0 0 0 0 0 0 0 0 0 0 0 0 0 0 0 0 0 0 0 0
0 0 0 0 0 0 0 0 0 0 0 0 0 0 0 0 0 0 0 0 0 0 0 0 0 0 0 0 0 0 0 0 0 0 0 0 0 0 0 0 0 0 0 0
0 0 0 0 0 0 0 0 0 0 0 0 0 0 0 0 0 0 0 0 0 0 0 0 0 0 0 0 0 0 0 0 0 0 0 0 0 0 0 0 0 0 0 0
0 0 0 0 0 0 0 0 0 0 0 0 0 0 0 0 0 0 0 0 0 0 0 0 0 0 0 0 0 0 0 0 0 0 0 0 0 0 0 0 0 0 0 0
0 0 0 0 0 0 0 0 0 0 0 0 0 0 0 0 0 0 0 0 0 0 0 0 0 0 0 0 0 0 0 0 0 0 0 0 0 0 0 0 0 0 0 0
0 0 0 0 0 0 0 0 0 0 0 0 0 0 0 0 0 0 0 0 0 0 0 0 0 0 0 0 0 0 0 0 0 0 0 0 0 0 0 0 0 0 0 0
0 0 0 0 0 0 0 0 0 0 0 0 0 0 0 0 0 0 0 0 0 0 0 0 0 0 0 0 0 0 0 0 0 0 0 0 0 0 0 0 0 0 0 0
0 0 0 0 0 0 0 0 0 0 0 0 0 0 0 0 0 0 0 0 0 0 0 0 0 0 0 0 0 0 0 0 0 0 0 0 0 0 0 0 0 0 0 0
0 0 0 0 0 0 0 0 0 0 0 0 0 0 0 0 0 0 0 0 0 0 0 0 0 0 0 0 0 0 0 0 0 0 0 0 0 0 0 0 0 0 0 0
0 0 0 0 0 0 0 0 0 0 0 0 0 0 0 0 0 0 0 0 0 0 0 0 0 0 0 0 0 0 0 0 0 0 0 0 0 0 0 0 0 0 0 0
0 0 0 0 0 0 0 0 0 0 0 0 0 0 0 0 0 0 0 0 0 0 0 0 0 0 0 0 0 0 0 0 0 0 0 0 0 0 0 0 0 0 0 0
0 0 0 0 0 0 0 0 0 0 0 0 0 0 0 0 0 0 0 0 0 0 0 0 0 0 0 0 0 0 0 0 0 0 0 0 0 0 0 0 0 0 0 0
0 0 0 0 0 0 0 0 0 0 0 0 0 0 0 0 0 0 0 0 0 0 0 0 0 0 0 0 0 0 0 0 0 0 0 0 0 0 0 0 0 0 0 0
0 0 0 0 0 0 0 0 0 0 0 0 0 0 0 0 0 0 0 0 0 0 0 0 0 0 0 0 0 0 0 0 0 0 0 0 0 0 0 0 0 0 0 0
0 0 0 0 0 0 0 0 0 0 0 0 0 0 0 0 0 0 0 0 0 0 0 0 0 0 0 0 0 0 0 0 0 0 0 0 0 0 0 0 0 0 0 0
0 0 0 0 0 0 0 0 0 0 0 0 0 0 0 0 0 0 0 0 0 0 0 0 0 0 0 0 0 0 0 0 0 0 0 0 0 0 0 0 0 0 0 0
0 0 0 0 0 0 0 0 0 0 0 0 0 0 0 0 0 0 0 0 0 0 0 0 0 0 0 0 0 0 0 0 0 0 0 0 0 0 0 0 0 0 0 0
0 0 0 0 0 0 0 0 0 0 0 0 0 0 0 0 0 0 0 0 0 0 0 0 0 0 0 0 0 0 0 0 0 0 0 0 0 0 0 0 0 0 0 0
0 0 0 0 0 0 0 0 0 0 0 0 0 0 0 0 0 0 0 0 0 0 0 0 0 0 0 0 0 0 0 0 0 0 0 0 0 0 0 0 0 0 0 0
0 0 0 0 0 0 0 0 0 0 0 0 0 0 0 0 0 0 0 0 0 0 0 0 0 0 0 0 0 0 0 0 0 0 0 0 0 0 0 0 0 0 0 0
0 0 0 0 0 0 0 0 0 0 0 0 0 0 0 0 0 0 0 0 0 0 0 0 0 0 0 0 0 0 0 0 0 0 0 0 0 0 0 0 0 0 0 0
0 0 0 0 0 0 0 0 0 0 0 0 0 0 0 0 0 0 0 0 0 0 0 0 0 0 0 0 0 0 0 0 0 0 0 0 0 0 0 0 0 0 0 0
0 0 0 0 0 0 0 0 0 0 0 0 0 0 0 0 0 0 0 0 0 0 0 0 0 0 0 0 0 0 0 0 0 0 0 0 0 0 0 0 0 0 0 0
Height
5862 5863 5862 5862 5862 5862 5861 5861 5861 5861 5860 5860 5859 5859 5859 5859 5859 5858 5857 5856 5854 5851 5849 5846 5843 5839 5836 5833 5830 5827 5824 5820 5817 5813 5808 5803 5799 5796 5795 5795 5796 5797 5798 5799
5860 5860 5860 5860 5860 5860 5859 5859 5858 5857 5857 5857 5856 5856 5857 5856 5855 5854 5852 5850 5848 5845 5842 5839 5835 5831 5828 5825 5823 5820 5816 5814 5811 5807 5803 5800 5798 5796 5795 5794 5794 5794 5794 5794
5857 5858 5858 5858 5858 5858 5857 5857 5856 5855 5854 5854 5854 5854 5853 5852 5850 5848 5846 5844 5841 5838 5834 5831 5827 5823 5819 5816 5814 5811 5809 5806 5804 5801 5798 5795 5794 5792 5791 5790 5790 5789 5789 5789
5855 5855 5856 5856 5856 5856 5856 5855 5854 5852 5851 5851 5851 5850 5849 5847 5845 5842 5840 5837 5833 5830 5826 5822 5819 5815 5812 5809 5806 5803 5801 5798 5796 5794 5792 5790 5788 5787 5786 5785 5784 5784 5783 5783
5852 5853 5854 5854 5854 5854 5854 5853 5852 5851 5850 5849 5848 5847 5846 5843 5840 5838 5834 5831 5827 5824 5820 5816 5813 5809 5806 5802 5799 5796 5792 5789 5787 5784 5783 5781 5780 5779 5778 5777 5777 5776 5775 5775
5852 5852 5853 5853 5853 5853 5852 5852 5851 5850 5849 5848 5847 5845 5843 5839 5836 5833 5829 5826 5822 5819 5815 5811 5807 5803 5799 5795 5791 5787 5783 5779 5776 5773 5770 5769 5768 5767 5767 5766 5766 5765 5765 5764
5852 5852 5852 5852 5852 5852 5851 5851 5850 5849 5847 5846 5844 5842 5840 5836 5832 5829 5826 5822 5818 5813 5809 5805 5800 5795 5791 5786 5782 5777 5773 5768 5764 5760 5757 5755 5753 5752 5752 5752 5752 5752 5752 5752
5852 5852 5852 5851 5850 5850 5849 5848 5848 5846 5844 5843 5840 5838 5835 5831 5828 5824 5820 5816 5812 5807 5802 5797 5792 5787 5783 5777 5772 5766 5762 5757 5752 5747 5743 5740 5737 5736 5735 5735 5735 5735 5736 5737
5852 5852 5851 5849 5848 5848 5846 5845 5844 5842 5840 5838 5836 5833 5830 5826 5822 5818 5814 5809 5804 5799 5793 5788 5782 5777 5772 5766 5760 5755 5749 5744 5739 5734 5730 5725 5722 5719 5717 5716 5716 5717 5717 5718
5852 5851 5850 5848 5847 5845 5844 5842 5840 5839 5836 5834 5832 5829 5826 5821 5817 5812 5806 5801 5795 5789 5783 5776 5769 5763 5756 5749 5743 5738 5733 5728 5723 5718 5714 5710 5706 5702 5700 5698 5697 5697 5697 5699
5851 5849 5848 5846 5844 5842 5841 5839 5837 5835 5833 5830 5827 5826 5820 5815 5810 5804 5799 5792 5786 5779 5771 5763 5755 5747 5740 5732 5726 5720 5715 5710 5705 5701 5697 5693 5689 5685 5682 5679 5677 5676 5675 5676
5850 5848 5845 5844 5842 5840 5838 5836 5834 5833 5830 5826 5823 5822 5813 5808 5802 5797 5790 5783 5776 5768 5760 5751 5743 5735 5727 5720 5713 5706 5700 5694 5688 5683 5679 5674 5669 5664 5661 5658 5655 5654 5653 5653
5849 5846 5844 5842 5842 5839 5836 5833 5831 5829 5826 5822 5818 5817 5808 5802 5796 5789 5782 5775 5768 5760 5751 5743 5734 5725 5717 5708 5701 5693 5686 5679 5672 5666 5660 5654 5649 5644 5639 5635 5632 5630 5630 5630
5848 5846 5845 5843 5840 5837 5834 5832 5829 5826 5822 5818 5814 5810 5804 5797 5791 5784 5777 5769 5761 5752 5743 5733 5724 5715 5706 5697 5689 5681 5673 5664 5656 5648 5640 5633 5627 5622 5617 5613 5610 5607 5606 5607
5847 5845 5843 5841 5838 5836 5833 5830 5827 5823 5819 5815 5810 5805 5799 5792 5785 5777 5769 5761 5752 5743 5734 5724 5714 5705 5695 5687 5678 5669 5660 5650 5640 5630 5620 5611 5604 5598 5593 5589 5586 5584 5583 5584
5845 5844 5842 5840 5837 5834 5831 5828 5824 5820 5816 5811 5806 5801 5794 5786 5777 5769 5761 5753 5743 5734 5724 5714 5704 5695 5686 5677 5667 5657 5646 5635 5623 5611 5601 5590 5581 5574 5568 5563 5560 5559 5559 5561
5844 5842 5841 5838 5835 5832 5829 5825 5821 5817 5812 5807 5801 5796 5789 5782 5772 5762 5754 5745 5735 5725 5715 5705 5695 5685 5676 5666 5656 5645 5632 5620 5607 5594 5582 5571 5560 5552 5544 5539 5536 5535 5536 5539
5843 5841 5838 5835 5833 5829 5828 5821 5818 5813 5808 5802 5796 5790 5783 5775 5767 5755 5746 5736 5726 5717 5707 5697 5686 5676 5666 5656 5645 5632 5619 5605 5591 5578 5565 5553 5542 5532 5523 5517 5515 5514 5515 5518
5841 5839 5835 5832 5829 5825 5822 5817 5813 5809 5804 5798 5791 5784 5777 5770 5763 5753 5742 5732 5720 5709 5698 5687 5676 5667 5657 5646 5634 5621 5607 5592 5578 5564 5550 5537 5525 5515 5506 5500 5496 5495 5496 5500
5839 5836 5833 5828 5825 5822 5819 5814 5809 5805 5799 5793 5786 5778 5771 5762 5755 5748 5736 5724 5713 5701 5690 5679 5669 5659 5649 5638 5625 5611 5597 5582 5567 5552 5538 5524 5511 5500 5492 5485 5481 5479 5481 5485
5835 5832 5828 5825 5822 5819 5816 5810 5806 5801 5795 5788 5781 5774 5765 5756 5747 5737 5726 5715 5704 5693 5683 5673 5662 5652 5642 5630 5617 5603 5588 5573 5558 5543 5528 5513 5499 5489 5480 5473 5469 5467 5469 5473
5831 5828 5824 5821 5818 5817 5811 5806 5802 5797 5790 5784 5777 5769 5761 5752 5742 5732 5721 5710 5699 5688 5678 5667 5657 5647 5635 5623 5610 5596 5581 5566 5550 5535 5520 5505 5492 5480 5472 5465 5461 5459 5461 5465
5827 5825 5820 5818 5816 5812 5807 5802 5798 5792 5786 5779 5772 5764 5756 5747 5737 5726 5716 5705 5694 5683 5672 5662 5651 5641 5629 5617 5603 5589 5575 5560 5546 5530 5514 5500 5487 5476 5467 5461 5457 5456 5457 5460
5824 5821 5817 5814 5811 5807 5803 5798 5793 5787 5780 5774 5766 5759 5750 5741 5731 5721 5710 5700 5690 5679 5668 5657 5647 5636 5625 5612 5599 5584 5570 5556 5542 5527 5512 5498 5486 5475 5467 5461 5457 5455 5455 5458
5819 5816 5813 5810 5807 5803 5798 5793 5787 5781 5775 5768 5760 5752 5744 5735 5726 5716 5706 5696 5686 5675 5663 5652 5642 5632 5621 5609 5595 5582 5567 5554 5540 5526 5512 5499 5487 5478 5469 5463 5459 5456 5456 5457
5814 5812 5809 5806 5802 5798 5793 5787 5782 5776 5769 5763 5755 5747 5739 5730 5722 5712 5702 5692 5681 5671 5660 5649 5638 5628 5618 5606 5593 5580 5566 5553 5541 5528 5514 5502 5491 5482 5473 5467 5462 5459 5458 5459
Wind_Speed
12 13 15 15 15 16 16 16 18 18 18 18 17 16 15 16 19 23 26 28 31 33 35 38 41 43 44 45 44 43 41 39 37 37 36 33 28 24 18 16 17 20 21 22
10 11 11 12 13 13 13 15 16 17 18 18 17 17 17 19 22 25 28 30 33 36 38 41 43 45 45 45 44 42 40 38 37 36 35 33 29 26 22 19 18 19 20 20
7 8 8 10 11 11 12 14 15 17 18 18 19 19 20 22 25 28 31 33 35 37 39 41 40 40 41 40 41 40 40 39 39 37 35 33 30 27 24 22 21 21 21 21
6 6 7 9 11 11 10 11 12 13 14 16 17 19 20 22 25 28 29 31 31 32 33 34 34 34 33 35 37 39 40 40 40 39 37 35 33 30 28 27 26 25 25 25
3 4 5 6 8 7 6 7 7 9 11 12 13 15 17 20 22 25 26 27 28 28 29 30 31 32 33 35 38 39 40 41 42 41 40 39 37 35 34 32 31 31 30 30
1 2 3 4 6 6 6 6 6 7 8 9 11 14 16 18 21 22 24 27 29 31 32 33 34 35 36 38 40 41 43 44 44 44 43 42 41 40 39 38 37 37 37 36
2 1 3 4 6 7 8 8 8 8 9 10 12 15 16 19 21 23 26 29 31 32 34 35 36 37 38 39 41 42 43 44 45 46 46 46 45 45 44 43 43 43 43 43
2 0 3 5 7 8 10 11 11 12 12 13 15 17 19 22 24 27 29 31 33 34 36 36 37 37 38 39 41 42 43 44 45 47 48 49 49 49 48 48 48 48 49 49
2 4 6 8 9 10 11 12 13 15 15 17 18 21 23 25 28 31 33 34 35 37 37 38 39 40 41 42 43 43 43 43 44 44 45 47 48 48 49 49 50 51 52 53
5 7 9 10 11 12 13 14 16 17 19 20 21 22 24 27 30 33 35 36 37 39 41 42 44 46 47 48 47 46 44 43 43 42 41 41 42 44 45 47 48 50 53 55
9 11 12 12 12 13 14 15 16 18 19 21 23 25 27 30 32 34 36 38 40 42 44 47 49 51 51 51 51 49 48 47 46 45 44 44 44 46 47 48 48 50 52 54
12 13 13 12 11 12 13 15 16 17 19 22 25 27 29 31 33 35 37 40 43 46 48 50 52 52 52 52 51 51 50 50 50 50 50 51 51 52 52 51 51 51 53 55
13 13 13 11 11 12 14 15 17 19 21 23 26 27 30 32 34 37 40 43 45 47 49 51 52 52 52 51 51 51 52 53 54 56 57 57 57 56 55 55 54 53 52 53
14 13 12 11 11 11 13 15 18 20 23 25 27 28 30 32 35 38 41 44 46 48 50 51 51 51 51 51 51 52 53 56 58 60 62 62 62 60 59 57 55 54 53 52
16 14 13 12 12 13 15 18 20 22 25 26 28 29 31 34 36 40 43 45 48 49 50 50 50 50 49 49 50 52 55 58 61 63 64 65 64 63 61 58 56 55 53 51
16 15 13 13 14 16 18 21 23 25 26 27 28 30 33 36 39 43 45 47 49 50 49 49 49 48 48 49 51 54 57 60 63 65 65 64 63 62 60 58 55 53 51 49
16 15 14 14 16 18 20 23 25 25 27 29 31 33 35 37 41 45 47 49 50 50 49 49 49 48 49 51 53 57 59 62 64 65 63 62 61 59 57 54 51 48 46 47
14 14 15 16 18 21 23 25 26 27 28 30 33 36 38 40 42 46 49 51 51 49 48 48 48 48 50 52 56 59 61 63 63 62 60 59 58 55 52 48 45 42 42 44
14 15 17 19 21 22 24 26 27 29 30 33 35 38 40 42 42 44 47 49 49 49 48 48 49 49 51 54 56 59 61 61 60 59 57 55 54 51 46 43 40 38 37 38
14 17 19 21 23 24 24 26 29 31 32 35 38 40 42 45 45 46 47 49 50 50 50 49 49 50 52 54 57 59 59 59 57 56 55 54 51 47 41 37 34 32 32 33
16 19 21 22 22 23 24 27 30 33 35 37 39 41 44 46 49 50 51 52 52 51 51 50 49 49 52 54 56 57 57 56 55 55 54 51 47 42 37 32 28 25 26 29
19 21 22 22 22 24 25 28 31 32 34 36 39 41 44 46 48 50 51 52 52 51 51 49 47 48 51 54 55 56 56 55 54 54 52 49 44 38 33 28 22 18 20 24
20 21 22 22 22 24 27 29 31 33 34 36 39 41 44 46 48 50 51 52 52 52 51 49 46 47 51 53 55 55 54 53 53 52 51 47 41 36 30 24 17 13 15 19
20 20 21 21 23 25 27 29 32 34 36 37 39 41 44 46 49 50 52 52 52 52 51 48 46 46 49 51 54 54 52 51 52 51 49 44 39 34 28 21 15 9 8 15
19 19 20 22 24 26 29 31 33 35 36 38 39 42 44 46 48 50 51 52 52 51 50 47 45 45 48 50 52 53 51 50 50 50 47 43 38 34 28 21 15 9 4 7
20 20 22 24 26 28 30 32 34 35 37 38 39 41 43 45 47 49 50 51 51 51 50 47 44 44 46 49 51 52 50 49 48 47 45 42 38 34 29 23 17 10 4 3
Wind_Direction
278 279 281 281 277 271 269 270 271 269 267 268 270 273 271 268 267 270 277 282 285 286 287 289 293 296 297 299 301 303 305 307 310 314 319 321 322 322 310 281 262 252 247 246
278 283 282 279 275 271 273 275 276 272 273 274 275 277 275 276 276 279 282 284 286 287 288 290 292 293 293 294 296 298 301 303 306 310 315 318 318 316 313 305 290 275 262 254
285 280 271 262 263 268 276 281 282 282 281 280 279 280 280 279 280 282 285 288 290 290 290 291 292 294 292 292 294 296 299 300 301 304 307 310 311 308 304 298 291 284 274 265
264 255 247 251 256 263 273 286 290 291 292 290 286 287 286 287 286 286 289 294 296 296 297 296 295 298 296 295 295 295 296 297 298 299 300 301 300 297 293 288 283 277 273 269
235 220 227 248 262 277 294 309 312 307 305 303 299 294 291 289 289 292 294 297 300 301 304 304 301 300 299 297 296 296 296 296 296 296 295 294 291 288 284 279 275 272 269 267
167 188 216 256 284 298 309 322 333 333 322 308 301 294 290 289 292 295 298 301 304 306 306 307 306 303 301 299 298 298 297 296 295 294 292 289 286 283 278 274 269 266 263 261
95 177 236 271 292 307 311 316 313 309 307 299 295 293 292 295 297 300 302 305 306 307 308 307 306 305 303 301 300 298 296 295 293 292 290 287 284 281 276 271 267 262 259 257
92 356 298 298 302 305 313 316 315 310 305 302 297 298 298 300 301 304 306 308 308 309 309 308 307 305 304 301 299 297 296 294 292 290 288 286 284 281 277 272 267 262 258 255
18 328 322 314 312 310 313 315 315 313 312 308 307 304 302 302 304 307 310 312 313 313 313 311 310 309 307 304 302 300 298 297 295 292 289 287 284 281 277 273 269 264 260 255
344 327 324 319 315 315 314 316 315 315 315 313 311 309 308 306 308 312 314 316 316 316 316 315 315 314 313 312 310 308 307 305 304 301 297 293 289 285 281 276 272 267 263 258
346 335 329 323 319 316 315 315 314 314 315 314 314 316 316 314 316 317 318 319 320 320 320 320 319 319 318 316 315 314 313 312 310 307 304 300 296 292 287 282 277 271 266 261
347 342 339 334 329 326 321 320 319 318 319 319 320 320 320 320 321 322 322 323 324 324 323 323 322 320 319 317 316 315 314 313 311 309 307 303 300 295 290 285 281 275 269 263
354 353 351 348 340 333 328 327 326 326 326 326 324 324 323 324 324 325 325 325 325 325 324 323 322 320 318 317 316 315 314 313 311 309 307 304 300 296 292 288 283 278 272 266
355 357 355 352 346 340 336 335 335 334 332 330 329 328 328 328 328 327 326 326 326 325 325 324 323 321 319 317 316 316 314 313 311 309 306 303 300 297 293 288 283 277 271 266
347 348 346 346 347 345 343 341 340 339 337 334 333 332 332 331 330 329 328 329 329 327 326 326 324 322 321 319 318 316 314 313 311 308 306 303 301 298 294 289 283 276 270 264
333 332 334 339 343 343 341 340 342 341 337 336 336 336 336 335 333 332 332 332 331 330 329 328 326 324 322 320 320 318 316 314 312 310 308 306 303 300 296 290 283 276 268 260
320 320 324 331 336 337 338 339 341 341 339 340 340 340 338 338 336 334 334 334 333 332 331 330 328 326 325 324 323 321 319 317 316 314 311 309 306 303 298 292 285 276 266 257
312 314 319 327 333 337 337 338 340 341 341 342 341 340 341 341 340 336 336 336 335 333 332 332 331 329 328 327 326 324 322 322 320 318 315 313 310 307 302 294 286 276 266 255
311 316 321 328 334 335 335 335 337 340 342 341 341 342 342 342 342 338 337 337 336 336 336 335 334 332 331 330 329 328 327 327 325 323 321 318 316 311 305 297 287 276 266 253
315 318 322 327 332 332 331 332 335 337 339 340 342 342 342 342 342 342 341 341 341 340 339 338 336 334 333 333 332 332 331 332 331 329 327 323 320 316 311 302 291 276 263 249
320 322 323 326 329 329 329 332 335 335 337 338 340 342 342 343 343 344 344 344 344 342 341 339 337 335 335 336 336 336 336 336 335 334 333 330 327 322 317 309 297 277 258 244
319 319 321 325 330 329 331 333 333 333 334 335 338 340 342 344 344 345 345 346 345 344 342 340 338 337 338 339 340 340 340 340 340 340 339 337 334 331 326 319 307 280 251 236
314 315 319 326 328 328 330 331 331 331 332 334 337 339 342 344 346 347 347 347 346 345 343 341 340 339 341 342 343 344 344 345 345 345 345 345 343 340 337 332 322 292 250 230
308 312 318 322 324 325 327 329 330 332 333 333 335 338 342 345 346 348 348 347 347 345 344 343 341 342 343 345 346 348 348 349 350 351 352 352 352 353 350 348 341 321 264 229
307 313 318 321 323 324 326 328 330 332 332 333 335 338 341 344 346 347 347 347 347 346 346 344 343 344 345 347 349 351 352 354 354 356 358 359 0 2 3 1 357 348 309 224
307 313 318 321 323 325 326 328 330 331 332 333 335 337 340 343 346 347 347 347 347 347 347 346 345 345 347 349 352 354 356 357 358 0 2 4 6 8 9 10 9 7 2 206